View from above orbital plane
|
View from above satellite
|
Ground track
|
The orbit data is extracted from the following two-line orbital elements,
1 16111U 85090B 21015.50826217 .00010365 00000-0 93024-4 0 9999
2 16111 97.4810 207.8621 0009583 192.2513 167.8517 15.68437562948211
Epoch (UTC): | 15 January 2021 12:11:53 |
Eccentricity: | 0.0009583 |
inclination: | 97.4810° |
perigee height: | 357 km |
apogee height: | 370 km |
right ascension of ascending node: | 207.8621° |
argument of perigee: | 192.2513° |
revolutions per day: | 15.68437562 |
mean anomaly at epoch: | 167.8517° |
orbit number at epoch: | 94821 |
The dashed part of the orbit path shows where the satellite is in the earth's shadow,
|
|